Flag for U.S.A. Weather past 2 weeks in Sidney, Montana, U.S.A.

Now
N/A

Sunny.


Feels Like: N/A
Forecast: 56 / 89 °F
Wind: 6 mph from North

Location: Sidney-Richland

Current Time: Jul 30, 2015 at 7:12:51 PM

Latest Report: Jul 30, 2015 at 6:55 PM


Visibility: 10 mi

Pressure: 30.12 "Hg (N/A at 591m altitude)

Humidity: N/A

Dew point: N/A

Location of SidneyLocation

Historic Weather in Sidney — Graph

°F

Sidney temperature yesterday

Maximum temperature yesterday: 68 °F (at 8:55 AM)
Minimum temperature yesterday: 57 °F (at 11:55 PM)
Average temperature yesterday: 61 °F

Past Weeks' High & Low Weather Summary

 TemperatureHumidityPressure
High81 °F (Jul 16, 11:15 AM)100% (Jul 28, 8:15 AM)30.19 "Hg (Jul 28, 8:15 AM)
Low52 °F (Jul 19, 5:15 AM)31% (Jul 17, 3:35 PM)29.47 "Hg (Jul 27, 7:15 PM)
Average62 °F71%29.84 "Hg
* Reported Jul 15 5:15 PM — Jul 30 5:55 PM, Sidney, Weather by CustomWeather, © 2015

Note: Actual official high and low records may vary slightly from our data, if they occured in-between our weather recording intervals... More about our weather records

Advertising

Sidney weather history for previous 24 hours

 ConditionsComfort  
Time TempWeatherWind HumidityBarometerVisibility
5:55 PM
Thu, Jul 30
N/APassing clouds.5 mphN/A30.13 "Hg10 mi
5:35 PMN/APassing clouds.8 mphN/A30.13 "Hg10 mi
5:15 PMN/APassing clouds.6 mphN/A30.13 "Hg10 mi
4:55 PMN/ASunny.7 mphN/A30.13 "Hg10 mi
3:35 PMN/ASunny.6 mphN/A30.15 "Hg10 mi
3:15 PMN/ASunny.5 mphN/A30.15 "Hg10 mi
2:55 PMN/ASunny.9 mphN/A30.16 "Hg10 mi
2:35 PMN/ASunny.6 mphN/A30.16 "Hg10 mi
2:15 PMN/ASunny.3 mphN/A30.17 "Hg10 mi
1:55 PMN/ASunny.12 mphN/A30.17 "Hg10 mi
1:35 PMN/ASunny.10 mphN/A30.18 "Hg10 mi
1:15 PMN/ASunny.10 mphN/A30.18 "Hg10 mi
12:55 PMN/ASunny.9 mphN/A30.18 "Hg10 mi
12:35 PMN/ASunny.8 mphN/A30.19 "Hg10 mi
12:15 PMN/ASunny.9 mphN/A30.19 "Hg10 mi
11:55 AMN/ASunny.8 mphN/A30.19 "Hg10 mi
11:35 AMN/ASunny.8 mphN/A30.19 "Hg10 mi
11:15 AMN/ASunny.8 mphN/A30.19 "Hg10 mi
10:55 AMN/ASunny.6 mphN/A30.18 "Hg10 mi
10:35 AMN/ASunny.10 mphN/A30.18 "Hg10 mi
10:15 AMN/ASunny.8 mphN/A30.18 "Hg10 mi
9:55 AMN/ASunny.10 mphN/A30.18 "Hg10 mi
9:35 AMN/ASunny.3 mphN/A30.18 "Hg10 mi
9:15 AMN/ASunny.3 mphN/A30.18 "Hg10 mi
8:55 AMN/ASunny.No windN/A30.18 "Hg10 mi
8:35 AMN/ASunny.No windN/A30.18 "Hg10 mi
8:15 AM64 °FSunny.No wind64%30.18 "Hg10 mi
7:55 AM63 °FSunny.No wind73%30.18 "Hg10 mi
7:35 AM61 °FSunny.No wind72%30.17 "Hg10 mi
7:15 AM57 °FSunny.No wind82%30.17 "Hg10 mi
6:55 AM57 °FSunny.3 mph82%30.17 "Hg10 mi
6:35 AM57 °FSunny.No wind82%30.15 "Hg10 mi
6:15 AM54 °FClear.3 mph88%30.15 "Hg10 mi
5:55 AM54 °FClear.No wind82%30.15 "Hg10 mi
5:35 AM54 °FClear.No wind82%30.15 "Hg10 mi
5:15 AM54 °FClear.5 mph77%30.15 "Hg10 mi
4:55 AM54 °FClear.3 mph82%30.15 "Hg10 mi
4:35 AM55 °FClear.No wind82%30.14 "Hg10 mi
4:15 AM57 °FClear.No wind82%30.15 "Hg10 mi
3:55 AM57 °FClear.3 mph77%30.14 "Hg10 mi
3:35 AM59 °FPassing clouds.No wind77%30.14 "Hg10 mi
3:15 AM59 °FPassing clouds.7 mph77%30.14 "Hg10 mi
2:55 AM59 °FPassing clouds.5 mph72%30.13 "Hg10 mi
2:35 AM57 °FOvercast.6 mph77%30.14 "Hg10 mi
2:15 AM55 °FPassing clouds.No wind77%30.12 "Hg10 mi
1:55 AM55 °FPassing clouds.3 mph82%30.11 "Hg10 mi
1:35 AM55 °FClear.6 mph77%30.11 "Hg10 mi
1:15 AM55 °FClear.5 mph77%30.10 "Hg10 mi
12:55 AM54 °FClear.6 mph82%30.10 "Hg10 mi
12:35 AM57 °FClear.No wind72%30.10 "Hg10 mi
12:15 AM57 °FClear.3 mph77%30.10 "Hg10 mi
11:55 PM
Wed, Jul 29
57 °FClear.No wind77%30.09 "Hg10 mi
11:35 PM59 °FClear.No wind68%30.10 "Hg10 mi
11:15 PM61 °FClear.No wind63%30.10 "Hg10 mi
10:55 PM61 °FClear.No wind68%30.10 "Hg10 mi
10:35 PMN/AClear.No windN/A30.09 "Hg10 mi
9:35 PMN/AClear.8 mphN/A30.08 "Hg10 mi
9:15 PMN/ASunny.7 mphN/A30.08 "Hg10 mi
8:55 PMN/ASunny.6 mphN/A30.07 "Hg10 mi
8:35 PMN/ASunny.7 mphN/A30.07 "Hg10 mi
8:15 PMN/ASunny.6 mphN/A30.07 "Hg10 mi
7:55 PMN/ASunny.5 mphN/A30.07 "Hg10 mi
7:35 PMN/ASunny.6 mphN/A30.07 "Hg10 mi
7:15 PMN/ASunny.8 mphN/A30.06 "Hg10 mi
Weather by CustomWeather, © 2015

See weather overviewHow to use our weather pages